Location: Fort Wayne
(41.1310°N, 85.1290°W)
Time: 20:33:18
(UTC-04:00)

COSMOS 2406 - Visible Passes

Search period start: 28 July 2014 00:00
Search period end: 07 August 2014 00:00
Orbit: 842 x 867 km, 71.0° (Epoch: 28 July)

Date Brightness Start Highest point End Pass type
(mag) Time Alt. Az. Time Alt. Az. Time Alt. Az.
28 Jul 5.5 01:31:39 10° N 01:35:23 17° NE 01:38:56 11° E visible
28 Jul 3.1 03:14:40 10° NNW 03:20:27 81° WSW 03:20:57 73° S visible
29 Jul 5.5 01:20:29 10° N 01:24:16 18° NE 01:27:18 12° E visible
29 Jul 3.1 03:03:32 10° NNW 03:09:19 80° WSW 03:09:19 80° WSW visible
30 Jul 5.4 01:09:19 10° N 01:13:09 18° NE 01:15:45 14° E visible
30 Jul 3.2 02:52:24 10° NNW 02:57:47 74° WNW 02:57:47 74° WNW visible
31 Jul 5.3 00:58:09 10° N 01:02:02 18° NE 01:04:17 15° ENE visible
31 Jul 3.3 02:41:16 10° NNW 02:46:20 67° NW 02:46:20 67° NW visible
01 Aug 5.2 00:46:59 10° N 00:50:55 19° NE 00:52:54 16° ENE visible
01 Aug 3.5 02:30:09 10° NNW 02:34:56 61° NW 02:34:56 61° NW visible
02 Aug 5.2 00:35:49 10° N 00:39:48 19° NE 00:41:33 17° ENE visible
02 Aug 3.6 02:19:01 10° NNW 02:23:36 56° NW 02:23:36 56° NW visible
03 Aug 5.1 00:24:39 10° N 00:28:41 19° NE 00:30:16 17° ENE visible
03 Aug 3.7 02:07:53 10° NNW 02:12:19 53° NW 02:12:19 53° NW visible
04 Aug 5.1 00:13:29 10° N 00:17:34 19° NE 00:19:01 18° ENE visible
04 Aug 3.8 01:56:45 10° NNW 02:01:05 51° NW 02:01:05 51° NW visible
05 Aug 5.0 00:02:19 10° N 00:06:26 20° NE 00:07:49 18° ENE visible
05 Aug 3.9 01:45:37 10° NNW 01:49:53 49° NW 01:49:53 49° NW visible
05 Aug 5.0 23:51:09 10° N 23:55:19 20° NE 23:56:39 19° ENE visible
06 Aug 3.9 01:34:29 10° NNW 01:38:43 49° NW 01:38:43 49° NW visible
06 Aug 4.9 23:39:59 10° N 23:44:11 20° NE 23:45:31 19° ENE visible
